Location: Ch?enovice
(49.7164°N, 15.2160°E)
Time: 20:17:08
(UTC+00:00)

Cosmos 2360 Rocket - Pass Details

Date: 23 May 2024
Orbit: 832 x 846 km, 71.0° (Epoch: 20 June)

Event Time Altitude Azimuth Distance (km) Brightness Sun altitude
Rises 00:13:45 0° 333° (NNW) 3,416 6.0 -17.6°
Reaches altitude 10° 00:16:23 10° 341° (NNW) 2,478 5.4 -17.4°
Maximum altitude 00:21:42 39° 50° (NE) 1,249 3.6 -17.1°
Drops below altitude 10° 00:27:00 10° 119° (ESE) 2,466 4.6 -16.8°
Sets 00:29:36 0° 127° (SE) 3,397 5.2 -16.6°
